GFSNE_prec_cthk_021.txt.gz
RH
69 72 83 87 91 97 95 88 90 78 71 73 66 73 75 67 68 76 89 77 84 98 88 83 77 75 74 67 56 52 52 57 63 56 45 47 53 54
79 82 85 87 92 98 99 99 97 95 83 86 85 87 91 92 87 75 93 84 95 90 92 97 88 83 77 68 58 53 58 60 59 58 54 47 45 50
60 59 52 55 69 87 94 94 95 97 88 79 83 85 85 92 94 92 90 97 89 94 94 91 86 81 75 71 66 53 53 59 63 62 58 53 48 44
49 48 43 34 32 38 48 59 69 77 81 78 79 80 82 83 88 89 88 90 94 96 96 92 90 81 77 74 72 68 52 55 59 61 62 56 51 48
49 46 42 35 31 34 42 43 42 43 51 66 69 70 69 70 72 74 75 73 80 87 87 86 83 76 75 75 71 68 67 58 56 58 58 62 60 54
47 48 48 48 48 49 50 49 48 46 46 46 51 60 61 59 56 59 55 55 55 61 66 68 62 60 64 70 69 68 69 71 67 60 53 53 56 58
54 57 58 61 66 67 67 59 57 55 51 47 42 43 50 52 54 58 59 59 60 64 64 60 57 53 56 63 63 71 70 71 75 65 54 49 46 47
61 63 65 70 73 73 73 75 74 68 64 56 51 48 46 51 51 53 58 62 61 62 64 63 61 58 56 59 64 66 70 69 64 66 65 58 52 47
77 77 75 76 77 75 73 76 76 78 73 64 58 52 50 46 52 53 54 54 56 57 53 52 57 60 60 56 56 57 57 60 66 65 61 64 59 55
91 89 83 83 90 88 79 71 71 70 70 62 56 47 49 47 55 56 57 61 63 58 56 52 50 49 50 53 56 56 54 54 55 56 56 57 56 51
89 85 83 89 93 97 94 84 72 73 71 65 61 56 54 55 60 64 62 63 58 53 57 58 53 53 55 53 53 55 55 55 55 52 50 47 47 45
90 93 95 91 86 83 82 79 77 75 66 60 59 55 56 59 64 67 68 69 71 70 71 70 64 65 61 59 58 58 57 57 57 55 54 51 47 43
93 96 98 99 98 96 91 84 78 75 74 71 71 73 76 78 79 83 86 87 87 85 84 83 81 82 82 83 77 74 72 69 65 65 64 62 58 53
97 98 99 99 99 98 99 99 92 88 87 85 85 87 90 92 91 90 90 90 89 88 87 88 89 90 89 90 89 88 93 90 84 78 73 68 63 60
98 99 99 99 99 99 99 99 96 92 91 94 95 94 94 93 90 86 81 76 74 73 76 80 85 88 94 97 94 93 94 95 93 89 85 81 74 65
98 98 99 99 99 99 99 99 99 98 98 97 95 90 85 81 77 72 66 60 58 60 62 64 68 79 88 96 97 95 95 95 89 87 83 86 86 79
98 98 98 98 98 98 98 99 99 97 93 90 87 84 82 77 71 65 65 66 65 66 67 68 70 79 91 99 97 96 94 91 89 88 86 85 86 90
98 98 98 99 98 97 98 98 95 92 92 90 87 83 80 76 72 67 68 66 65 65 69 75 76 81 88 96 98 96 92 91 91 89 86 86 87 90
95 98 99 99 92 90 85 88 90 95 93 91 87 84 81 79 76 70 68 67 69 67 68 70 75 78 80 88 93 94 96 96 93 91 90 90 87 90
81 90 98 96 87 82 82 79 72 71 83 94 91 84 80 79 78 76 73 69 68 67 70 69 68 70 74 77 82 89 91 92 92 90 92 93 93 94
71 75 82 88 87 82 78 75 74 70 64 64 82 87 83 80 76 77 76 74 72 70 68 68 68 68 67 67 69 74 77 78 82 84 86 89 93 94
68 69 71 72 76 78 77 71 66 60 58 60 60 65 75 78 73 72 73 73 73 70 71 69 67 65 64 63 63 60 60 64 67 70 71 72 78 85
66 71 73 71 70 72 73 72 68 61 56 53 51 51 46 51 54 60 63 64 64 65 66 69 68 69 66 67 65 64 64 62 60 62 67 71 72 75

GFSNE_prec_cthk_024.txt.gz
RH
53 59 68 78 80 84 89 94 97 82 74 73 73 76 70 66 68 63 64 73 82 93 97 87 82 83 94 92 83 69 57 46 43 57 64 58 54 56
50 52 56 59 58 57 60 74 91 95 85 80 79 80 84 83 82 84 76 72 76 86 87 79 84 91 97 92 87 82 71 60 54 55 62 66 58 54
48 51 52 55 53 48 42 36 42 65 76 72 74 77 80 85 88 88 93 86 83 86 86 90 98 94 95 89 89 87 83 73 64 61 62 60 63 58
48 49 46 42 39 38 35 29 30 38 45 48 53 52 65 69 79 86 91 89 89 87 83 95 97 88 83 84 87 82 84 80 66 63 61 58 63 60
46 47 46 45 44 44 43 40 40 39 42 42 38 38 40 63 68 73 79 78 84 87 87 89 94 91 96 93 90 82 79 76 71 67 60 60 58 61
51 49 49 50 50 52 55 56 56 54 50 49 44 45 43 38 54 61 60 61 61 70 80 81 86 89 88 91 90 82 77 69 66 68 64 56 52 47
49 55 62 66 68 70 74 72 72 70 67 63 58 56 50 45 41 54 57 55 54 58 67 73 77 81 83 79 81 76 71 68 65 68 68 66 61 53
58 72 80 80 77 78 81 79 81 79 75 74 71 66 58 50 48 46 51 55 54 52 58 63 67 72 74 76 76 70 67 66 67 64 61 59 60 61
76 77 74 78 78 77 84 90 88 85 84 78 74 69 64 56 52 47 47 52 55 55 51 49 53 58 66 68 67 63 59 55 56 62 61 57 57 56
73 73 78 81 89 89 85 94 97 94 88 76 71 69 64 55 51 47 45 50 54 54 54 55 46 42 49 52 55 56 52 48 52 51 55 55 57 59
78 82 87 92 95 97 95 85 85 92 90 82 78 74 68 61 56 54 48 53 52 51 55 56 52 52 51 45 40 40 40 42 41 45 49 51 53 50
83 92 96 98 98 99 99 98 88 85 79 74 70 64 57 54 53 51 50 53 59 58 58 62 56 58 57 55 55 57 55 52 53 51 50 49 50 50
88 94 96 98 99 98 99 99 98 90 85 82 75 70 67 66 67 67 67 69 72 72 71 70 68 68 66 61 63 62 62 61 57 56 59 58 55 53
91 95 97 98 98 99 99 99 98 93 90 87 82 80 80 79 78 78 79 82 85 83 86 86 84 83 81 81 80 76 74 69 68 66 66 66 67 66
93 97 98 98 98 99 99 99 99 98 92 90 89 89 89 90 91 92 92 89 87 82 80 81 81 80 82 85 89 90 89 90 92 89 82 73 68 68
93 97 98 98 98 99 99 99 99 99 99 99 99 99 96 95 94 88 79 70 65 60 58 59 60 63 66 73 80 88 97 97 96 96 93 87 79 73
89 95 97 98 97 97 99 99 99 99 99 97 95 90 85 81 77 69 69 68 67 66 67 66 64 64 70 79 84 87 91 96 94 90 87 84 81 81
77 89 96 97 89 88 87 83 90 96 94 93 91 88 85 81 75 69 69 68 65 66 66 68 70 72 77 82 86 93 96 93 90 88 86 84 81 79
64 72 88 91 86 82 82 82 77 76 96 96 93 90 86 82 78 72 68 66 65 66 66 66 69 70 71 73 77 82 87 91 92 92 90 88 84 80
51 63 71 80 83 84 79 75 74 69 68 81 95 90 85 82 79 77 74 71 67 66 67 65 66 65 66 69 70 74 77 82 85 84 83 81 83 84
55 50 61 67 72 77 77 74 67 62 62 67 67 85 86 82 78 77 78 76 73 71 70 65 64 64 66 65 64 65 68 69 68 72 76 78 82 88
60 57 53 64 69 71 73 73 72 65 59 60 60 59 67 79 82 77 75 75 75 73 71 71 69 66 65 62 61 62 62 58 55 59 64 64 66 72
58 64 61 60 67 75 77 75 74 73 68 61 57 50 49 50 50 51 52 59 64 65 67 68 69 69 69 69 67 66 62 59 59 60 58 59 60 65

GFSNE_prec_cthk_027.txt.gz
RH
48 44 39 40 48 55 60 65 72 70 75 80 78 82 80 74 68 64 59 58 54 55 75 84 91 97 99 97 97 91 81 64 48 44 48 54 50 49
53 44 45 47 49 49 52 53 53 51 52 52 62 77 82 84 78 71 72 68 61 56 70 99 94 94 87 90 94 91 83 78 68 55 50 57 60 59
51 45 47 46 44 43 42 41 41 41 39 32 34 38 57 64 67 73 67 72 73 67 61 71 93 94 98 95 89 91 93 94 88 78 67 61 64 63
57 51 48 47 44 42 42 42 43 44 44 41 36 35 36 38 44 48 64 61 68 77 72 73 81 96 97 96 96 87 84 93 92 91 87 77 73 64
57 53 48 43 41 43 46 47 51 53 55 54 48 46 43 40 36 34 33 53 58 71 78 86 83 78 88 92 92 91 93 90 86 90 90 83 77 73
54 48 44 45 55 63 65 67 72 74 75 72 66 62 59 51 43 41 35 32 51 59 70 74 86 91 86 83 78 89 97 95 95 91 89 79 73 72
45 43 52 67 68 68 68 70 72 73 80 85 80 77 72 68 57 49 44 36 38 55 58 68 76 86 91 79 80 84 90 95 93 90 88 82 78 69
41 53 63 64 69 75 77 83 83 81 80 85 86 82 78 76 71 60 50 42 36 50 55 57 69 76 91 92 94 92 88 90 93 88 80 74 74 73
47 60 62 71 79 84 90 92 93 94 86 92 90 86 80 74 71 64 57 48 39 41 54 53 55 63 77 91 87 90 90 87 87 87 82 77 71 65
59 63 74 83 90 94 96 98 96 96 86 87 94 94 85 75 70 66 58 51 42 37 48 54 52 52 56 68 73 82 84 80 78 82 72 66 63 64
65 74 85 91 95 97 98 99 98 95 90 81 88 90 82 77 74 71 62 56 46 39 45 53 49 51 49 46 51 58 62 68 71 72 69 62 56 52
69 83 91 95 98 98 98 98 98 97 96 91 85 83 79 72 68 64 61 54 48 41 41 51 53 54 50 47 44 42 40 43 45 49 51 49 47 44
70 84 93 96 98 98 99 99 99 98 95 91 88 85 81 75 69 63 60 58 56 53 57 62 60 62 60 54 52 51 48 48 50 48 46 46 45 44
70 83 94 97 99 99 99 99 98 99 96 91 87 82 80 79 77 76 74 73 73 73 75 76 73 72 69 66 62 60 63 62 61 61 60 56 54 54
66 80 91 96 97 98 99 99 98 99 99 94 90 89 88 88 87 88 87 85 84 83 84 85 81 82 81 80 77 77 74 69 64 62 64 65 68 67
56 75 87 95 96 98 99 98 98 99 99 99 99 99 98 98 97 95 94 94 91 89 83 80 80 80 79 80 81 81 84 87 85 86 84 80 75 70
45 58 80 90 83 84 88 84 88 98 96 96 97 98 97 95 89 81 76 74 72 70 70 69 68 65 65 66 69 71 74 77 79 88 93 91 89 85
44 43 59 79 84 81 79 82 76 79 98 95 91 87 84 82 78 77 76 72 72 72 70 70 71 72 73 77 79 82 85 90 93 94 94 91 88 85
48 42 47 57 72 81 80 77 76 70 72 92 96 93 89 85 81 75 74 72 71 70 70 70 72 72 73 75 78 79 82 85 92 94 93 91 89 86
56 51 46 47 55 70 77 76 71 66 67 71 79 95 91 87 84 79 76 73 72 72 71 69 68 66 67 69 70 73 76 78 82 87 89 89 87 85
54 58 54 51 51 60 70 76 74 72 65 66 66 65 81 88 85 82 79 77 75 73 71 68 66 65 63 64 65 65 66 69 68 68 72 76 78 79
50 54 59 57 55 55 62 73 76 75 73 69 62 58 56 62 76 81 76 77 78 76 73 72 72 69 67 63 60 60 62 61 58 55 58 60 62 66
52 51 53 57 59 61 64 67 77 80 79 76 73 66 53 48 49 46 47 48 51 58 67 70 70 71 69 70 69 67 67 65 61 58 58 57 55 56

GFSNE_prec_cthk_030.txt.gz
RH
68 68 59 58 54 55 56 55 52 45 35 33 34 42 60 81 86 78 71 62 52 46 43 39 48 73 88 94 95 86 76 71 65 58 49 48 43 42
69 66 66 58 50 49 53 53 51 50 41 36 32 33 33 37 57 73 75 71 61 53 50 46 43 59 73 89 95 89 84 80 79 73 63 58 51 50
77 72 60 49 48 50 51 46 44 46 43 37 37 36 37 37 35 34 48 61 57 61 53 53 50 51 66 79 93 89 90 93 92 91 80 69 59 55
83 59 48 48 45 44 41 43 51 59 61 59 52 47 44 44 50 42 33 30 37 44 59 56 55 53 70 76 80 85 92 89 92 99 97 89 79 64
52 49 45 42 40 44 58 64 65 64 68 70 61 60 63 62 56 52 44 37 31 28 37 55 57 62 71 88 80 88 93 98 97 98 98 99 95 85
47 43 41 41 48 60 64 71 75 78 81 82 80 76 72 72 77 67 58 50 38 33 27 32 55 63 65 87 96 92 98 98 98 95 97 98 98 96
40 37 38 45 61 67 76 81 84 85 89 91 89 87 81 81 89 85 74 63 50 38 31 26 47 66 69 72 90 91 96 97 97 97 96 93 94 96
34 35 37 56 63 76 84 92 96 97 96 97 96 94 86 87 91 92 84 75 62 48 37 31 34 62 71 79 81 81 84 97 96 98 97 97 95 91
36 37 46 62 74 83 88 94 97 99 99 98 97 96 88 98 94 89 84 78 66 57 46 33 33 50 65 83 80 81 87 88 86 84 89 93 97 95
38 40 56 70 83 89 95 97 98 98 99 98 98 93 87 96 98 92 82 72 64 59 52 40 35 42 54 61 77 83 88 87 78 82 84 91 96 96
40 45 62 77 88 95 97 98 97 98 99 99 99 96 89 95 93 90 82 75 67 62 57 46 38 39 51 51 56 66 78 84 91 90 86 84 93 89
42 47 63 79 92 96 99 98 98 99 97 96 93 96 92 93 91 81 76 74 70 63 57 47 42 43 50 52 50 53 54 63 71 77 86 87 84 86
44 47 59 80 91 97 99 99 99 98 99 93 91 91 89 91 90 84 77 67 60 58 63 57 53 51 53 57 59 59 53 52 57 62 65 71 69 67
44 47 54 76 88 94 97 99 98 99 99 98 91 89 85 83 82 79 76 73 71 70 69 67 65 63 65 68 68 66 62 58 55 54 59 60 58 56
43 42 46 68 81 86 94 94 95 98 98 98 98 94 90 88 88 87 85 81 78 77 77 77 76 73 75 75 78 77 73 69 63 61 60 60 59 58
44 41 39 57 72 73 80 86 82 93 97 97 98 99 99 97 93 92 90 89 89 89 87 85 84 84 84 83 83 81 79 78 74 72 70 69 68 68
45 43 40 41 56 73 73 79 79 75 96 97 92 92 97 99 99 98 96 93 91 88 86 83 84 85 86 89 89 88 86 84 83 83 81 80 78 77
46 45 45 41 42 57 72 73 72 74 73 90 98 92 86 82 79 80 81 81 80 80 78 75 74 72 70 69 70 72 74 75 75 74 74 79 89 92
44 48 49 48 46 46 58 72 75 70 70 74 78 96 92 88 82 77 77 77 76 76 77 77 77 77 77 78 77 78 79 78 79 83 86 87 86 86
40 46 50 50 51 50 52 60 71 75 72 70 71 69 84 91 87 83 77 73 73 72 71 71 73 73 74 74 75 75 75 78 80 81 85 89 90 90
40 41 46 51 52 53 53 54 60 73 77 75 71 64 59 63 84 87 83 79 74 70 69 68 69 69 68 68 69 70 70 71 72 74 76 78 81 84
45 42 42 45 49 52 54 58 61 65 76 80 78 75 63 56 54 57 65 75 76 76 73 72 72 72 71 68 66 65 64 63 62 60 60 61 63 67
52 48 46 45 45 47 49 51 55 60 65 78 84 81 78 68 53 50 45 44 45 49 66 77 78 77 77 76 74 71 70 68 66 63 59 57 56 55

GFSNE_prec_cthk_036.txt.gz
RH
48 58 62 64 69 69 63 58 55 48 44 45 45 46 48 48 47 45 43 43 41 42 49 58 59 53 42 34 30 38 53 66 83 88 74 66 59 54
54 59 63 66 67 61 56 58 58 55 48 43 50 54 56 54 53 52 52 45 36 36 37 42 51 55 50 41 33 34 44 62 63 72 81 76 67 64
56 56 58 61 55 54 56 56 55 55 53 45 59 61 63 63 64 64 60 57 57 55 49 42 37 49 53 47 38 32 36 55 81 93 91 90 76 68
52 52 53 54 55 53 53 55 54 52 62 60 66 71 71 71 71 69 69 68 67 65 62 48 38 36 47 50 43 34 30 47 81 97 99 87 84 77
45 47 49 50 48 47 47 50 51 59 70 76 75 79 80 81 80 80 78 76 77 74 61 55 43 36 36 43 48 43 34 34 59 78 89 84 83 84
44 42 43 43 43 40 42 48 56 69 78 83 81 85 88 89 88 86 84 86 87 88 81 66 56 45 34 32 35 41 41 38 63 92 74 71 79 93
41 41 41 42 38 38 44 52 63 75 84 87 90 91 93 94 95 92 89 90 91 92 91 80 70 64 59 43 37 36 40 42 51 74 80 77 78 97
42 41 44 44 45 42 47 55 69 81 89 94 95 97 97 98 94 97 96 98 94 94 96 90 80 70 65 60 49 36 38 49 62 62 85 88 82 97
42 44 47 47 46 49 52 60 77 87 94 98 98 99 99 94 93 97 96 95 92 92 91 88 84 75 65 59 45 38 37 54 71 70 69 80 90 99
45 49 47 46 48 48 54 66 81 90 97 99 99 99 96 89 93 96 96 91 91 93 94 88 86 78 69 56 47 36 41 51 78 79 77 69 96 95
50 49 42 43 45 49 56 68 82 90 98 99 98 96 86 84 88 93 96 99 98 98 99 98 95 82 71 59 47 36 37 53 80 84 81 77 82 98
51 44 42 42 37 51 53 60 81 85 91 97 96 95 90 85 90 96 98 98 98 94 97 99 91 83 72 61 48 41 31 44 76 88 82 81 80 88
46 41 42 40 36 46 51 58 71 78 83 97 96 96 97 89 87 95 98 98 97 95 92 91 84 79 72 66 56 43 39 36 61 82 85 81 81 88
44 40 40 37 38 39 48 54 61 76 83 97 99 94 99 97 90 88 88 89 87 85 83 81 78 76 74 69 59 52 42 40 52 63 78 90 83 78
41 33 35 37 38 42 46 48 60 75 81 91 99 98 93 99 99 95 90 89 85 82 79 77 79 77 74 72 70 58 52 45 53 60 58 72 80 79
44 37 35 38 41 45 51 54 58 67 77 81 94 99 95 91 98 98 99 94 90 89 86 79 80 78 75 71 68 64 60 60 64 66 65 64 68 71
45 41 42 44 46 48 52 55 56 59 76 81 78 92 99 94 88 91 98 99 99 93 90 88 86 82 79 78 75 70 67 73 74 74 71 65 64 72
50 48 45 45 45 46 49 53 56 57 58 78 80 72 79 99 94 87 88 94 99 98 98 92 90 88 87 81 78 79 79 83 83 81 82 83 80 72
57 54 50 48 47 46 45 48 54 55 55 61 80 84 72 68 97 95 86 86 89 91 94 96 95 93 91 91 87 89 90 88 88 89 88 86 87 88
61 59 56 53 52 49 47 45 45 48 52 55 62 82 87 75 68 90 97 89 82 85 87 88 85 80 80 83 86 87 90 90 91 91 90 88 85 84
68 67 64 60 58 56 53 46 40 41 44 48 53 61 81 88 80 63 67 80 90 86 80 80 83 85 87 87 88 89 86 86 87 87 86 87 85 84
66 70 71 70 68 65 61 54 50 49 46 44 47 50 60 76 89 85 68 53 67 76 89 86 80 77 78 81 84 84 86 84 85 83 82 82 83 86
62 70 73 77 78 76 71 65 60 54 50 44 44 47 49 56 70 86 87 75 54 45 60 83 88 85 82 78 76 74 72 72 72 72 70 69 70 70